This is the latest recevied weather packets stored in our database for station/object AE5HO. If no packets are shown the sender has not sent any weather packets the latest 1 day(s).
| Time | Temp. | Humidity | Pressure | Rain* | Wind** | Luminosity | Snow |
|---|---|---|---|---|---|---|---|
| 1777987601 | 22.22° C | 87% | 1005.1 hPa | 0 mm | 1.34 m/s, 270° | 46 W/m² | - |
| 1777987299 | 22.22° C | 87% | 1004.6 hPa | 0 mm | 0 m/s | 48 W/m² | - |
| 1777986995 | 22.22° C | 87% | 1005 hPa | 0 mm | 0 m/s | 45 W/m² | - |
| 1777986693 | 22.22° C | 88% | 1004.7 hPa | 0 mm | 0.45 m/s, 90° | 39 W/m² | - |
| 1777986391 | 21.67° C | 88% | 1004.6 hPa | 0 mm | 1.34 m/s, 263° | 34 W/m² | - |
| 1777986090 | 21.67° C | 88% | 1004.5 hPa | 0 mm | 2.24 m/s, 254° | 38 W/m² | - |
| 1777985785 | 21.67° C | 88% | 1004.5 hPa | 0 mm | 0.89 m/s, 297° | 32 W/m² | - |
| 1777985483 | 21.67° C | 88% | 1004.4 hPa | 0 mm | 3.58 m/s, 270° | 27 W/m² | - |
| 1777985179 | 21.67° C | 88% | 1004.3 hPa | 0 mm | 0.45 m/s, 198° | 24 W/m² | - |
| 1777984875 | 21.67° C | 88% | 1004.4 hPa | 0 mm | 1.34 m/s, 202° | 24 W/m² | - |
| 1777984572 | 21.67° C | 88% | 1004.5 hPa | 0 mm | 0 m/s | 18 W/m² | - |
| 1777984268 | 21.67° C | 88% | 1004.1 hPa | 0 mm | 0 m/s | 21 W/m² | - |
| 1777983965 | 21.67° C | 88% | 1004.2 hPa | 0 mm | 0.89 m/s, 168° | 21 W/m² | - |
| 1777983662 | 21.67° C | 88% | 1004.1 hPa | 0 mm | 0.89 m/s, 101° | 21 W/m² | - |
| 1777983358 | 21.67° C | 88% | 1004.1 hPa | 0 mm | 1.34 m/s, 219° | 13 W/m² | - |
| 1777983056 | 21.67° C | 89% | 1004.1 hPa | 0 mm | 2.24 m/s, 223° | 9 W/m² | - |
| 1777982752 | 21.67° C | 89% | 1003.9 hPa | 0 mm | 0.45 m/s, 83° | 7 W/m² | - |
| 1777982448 | 21.67° C | 89% | 1004 hPa | 0 mm | 1.34 m/s, 255° | 4 W/m² | - |
| 1777982142 | 21.67° C | 89% | 1004 hPa | 0 mm | 0.89 m/s, 259° | 2 W/m² | - |
| 1777981840 | 21.67° C | 89% | 1004.2 hPa | 0 mm | 0.45 m/s, 255° | 1 W/m² | - |
| 1777981537 | 21.67° C | 88% | 1003.9 hPa | 0 mm | 0 m/s | 0 W/m² | - |
| 1777981233 | 21.67° C | 89% | 1003.9 hPa | 0 mm | 1.34 m/s, 249° | 0 W/m² | - |
| 1777980930 | 21.67° C | 88% | 1004 hPa | 0 mm | 0.45 m/s, 180° | 0 W/m² | - |
| 1777980626 | 21.67° C | 89% | 1003.9 hPa | 0 mm | 0 m/s | 0 W/m² | - |
| 1777980322 | 21.67° C | 89% | 1003.9 hPa | 0 mm | 0 m/s | 0 W/m² | - |
* Rain latest hour (hover to see other rain measurements)
** Current wind speed in m/s (hover to see current wind gust speed)